User: anonymous   Login
Location: Bodest
(46.3000°N, 22.5667°E)
Time: 14:59:03
(UTC+00:00)
Language:

H-2A R/B - Orbit

View from above orbital plane
View from above orbital plane
View from above satellite
View from above satellite

Ground track
Ground track

The orbit data is extracted from the following two-line orbital elements,

1 28932U 06002B   22023.12502897  .00001183  00000-0  11241-3 0  9990
2 28932  98.3111  57.5924 0087112 207.6389 219.4640 14.92907582868460
Epoch (UTC): 23 January 2022 03:00:02
Eccentricity: 0.0087112
inclination: 98.3111°
perigee height: 528 km
apogee height: 649 km
right ascension of ascending node: 57.5924°
argument of perigee: 207.6389°
revolutions per day: 14.92907582
mean anomaly at epoch: 219.4640°
orbit number at epoch: 86846

The dashed part of the orbit path shows where the satellite is in the earth's shadow,  

DLR